Vorticity
12 18 15 17 10 10 13 2 -2 42 7 17 4 1 3 4 6 10 8 10 10 10 7 8 5 7 8 10 7 3 3 6 4 5 6 9 6 14 11 2 2 1 2 2
8 17 11 11 18 8 5 18 6 12 3 -9 -0 8 3 -1 5 10 4 10 10 9 7 8 10 5 3 3 5 2 3 8 9 5 8 10 12 4 2 1 1 2 2 2
-1 11 5 6 3 36 19 8 21 4 5 10 -1 18 6 3 4 4 4 7 7 3 3 2 3 4 6 4 2 2 6 7 9 10 7 8 6 1 1 1 2 2 2 4
-1 15 6 7 27 -1 5 8 10 4 -2 -0 7 10 5 5 9 -2 2 -4 0 13 8 3 8 5 7 5 3 2 8 9 6 6 4 3 3 2 3 3 3 3 3 3
1 8 13 46 -1 5 2 4 16 5 4 0 -3 11 10 13 12 -21 12 11 9 1 12 -1 5 12 6 8 8 9 7 6 4 5 3 1 2 2 3 2 3 3 3 4
12 4 22 8 -13 -7 2 4 6 17 3 7 9 3 12 1 18 -4 -6 26 12 10 8 21 13 13 2 -0 6 11 8 3 2 2 3 4 2 3 3 3 2 4 6 7
8 3 17 5 14 -4 3 5 -1 -1 12 3 -1 6 10 -3 5 5 10 7 -0 15 10 7 9 10 12 7 7 4 2 5 5 3 4 2 4 3 1 2 3 7 9 -2
12 7 25 11 0 11 4 3 2 1 7 12 6 5 11 3 13 12 9 13 15 13 3 4 8 6 3 6 5 8 2 4 3 4 1 3 3 3 3 5 6 2 3 9
11 5 11 5 -13 -1 -1 4 6 11 6 4 6 9 8 8 9 -0 3 13 10 4 2 6 5 3 4 3 4 4 11 1 3 1 1 0 4 11 4 12 3 -0 16 8
8 -4 10 2 7 -1 10 -2 7 4 12 13 8 4 16 5 2 7 15 8 4 4 5 6 4 4 5 4 3 9 4 1 2 2 3 9 9 10 8 8 -2 21 -6 17
8 8 4 2 1 -2 6 10 1 16 13 7 20 1 6 10 8 8 7 15 5 -1 4 7 5 4 3 3 3 3 0 2 3 3 7 17 -0 7 2 0 19 18 -6 40
11 6 4 1 1 3 -3 -3 16 5 -0 -3 11 7 8 4 5 7 8 2 6 4 -0 4 2 0 4 4 2 4 6 5 8 9 10 1 14 6 7 13 10 -11 15 -13
12 6 12 5 4 11 28 30 11 7 7 4 8 9 4 8 5 6 7 9 11 4 5 1 -6 -2 4 -3 0 5 7 9 12 7 3 11 14 10 12 11 -11 -2 13 10
9 14 10 -0 9 -0 9 10 -1 4 2 7 8 11 11 12 6 5 5 11 9 11 12 12 12 4 2 16 1 9 17 7 4 22 -9 18 -2 13 4 2 -6 10 10 2
7 16 11 2 0 11 21 14 -4 -5 5 7 4 7 8 6 13 11 15 15 12 11 9 8 5 7 6 8 3 12 10 11 4 8 5 10 9 -7 4 8 20 4 5 12
9 4 5 7 7 7 15 10 6 8 6 5 5 3 9 12 9 11 12 10 7 7 7 5 5 6 6 9 14 -8 4 7 31 17 12 7 -4 21 24 8 5 14 8 8
10 8 6 3 4 6 17 7 4 5 5 4 5 7 11 12 13 14 10 8 6 6 5 5 5 4 5 4 3 4 6 9 16 9 8 11 10 10 8 7 8 10 9 8
9 8 10 14 10 11 -2 8 7 5 5 7 10 11 12 14 13 9 7 6 6 6 5 4 5 7 4 4 6 8 9 10 11 11 12 10 6 8 10 12 10 0 11 4
10 10 6 8 6 6 7 4 11 12 10 10 12 16 14 12 11 9 7 6 6 6 7 9 5 4 6 6 5 10 13 10 9 9 7 9 8 12 10 7 3 6 12 11
12 5 6 5 7 7 4 8 7 8 8 16 20 18 14 11 6 6 6 6 6 8 5 4 6 6 6 8 12 9 10 11 11 10 9 9 14 7 3 5 11 13 8 8
12 8 4 7 9 6 -1 11 7 6 22 16 13 12 9 8 7 7 8 8 5 6 7 7 6 7 10 10 11 10 9 8 9 10 14 12 4 3 9 13 6 8 7 6
10 9 10 5 8 1 10 14 12 13 12 10 8 6 8 8 8 7 5 5 6 6 5 6 9 10 11 10 9 8 8 10 11 13 7 5 7 12 9 7 9 7 4 5
5 8 4 4 4 6 12 13 12 16 13 10 8 10 9 7 7 6 8 7 5 5 9 9 9 10 9 9 8 10 10 10 9 6 5 9 13 8 7 7 4 4 7 8
13 12 1 5 5 8 16 15 8 8 13 10 6 4 4 5 6 6 5 6 7 8 8 9 10 9 8 8 10 11 8 7 6 6 8 9 10 7 5 5 6 7 8 7
7 15 4 6 7 15 17 15 14 12 5 4 6 5 5 5 5 5 5 6 6 7 9 9 9 8 8 11 10 7 9 6 7 9 11 10 6 5 4 5 6 7 9 9
38 -10 5 9 13 11 10 14 9 5 5 6 5 5 5 5 5 6 6 5 6 8 8 10 8 9 10 9 7 9 6 6 10 12 9 7 5 4 5 6 6 10 10 13
Height
5751 5749 5750 5751 5752 5755 5754 5755 5758 5761 5763 5762 5761 5762 5766 5765 5767 5771 5770 5769 5769 5771 5771 5771 5771 5775 5777 5778 5778 5778 5778 5779 5779 5780 5781 5781 5782 5780 5779 5779 5779 5777 5776 5772
5751 5750 5750 5751 5752 5754 5755 5755 5757 5758 5760 5762 5762 5762 5762 5765 5765 5766 5768 5768 5771 5773 5771 5771 5771 5772 5774 5776 5776 5775 5775 5776 5776 5778 5778 5778 5778 5776 5776 5776 5774 5771 5768 5765
5750 5749 5750 5751 5751 5754 5755 5757 5756 5759 5759 5761 5761 5761 5761 5762 5764 5766 5767 5768 5770 5772 5772 5771 5771 5771 5771 5771 5770 5770 5771 5772 5773 5775 5774 5775 5774 5772 5771 5769 5766 5763 5760 5758
5749 5748 5748 5749 5751 5752 5753 5754 5755 5756 5757 5759 5761 5762 5761 5762 5764 5766 5767 5768 5769 5770 5771 5771 5771 5770 5770 5769 5769 5767 5768 5769 5770 5770 5769 5769 5768 5766 5764 5762 5760 5757 5754 5751
5747 5747 5746 5748 5750 5750 5752 5753 5754 5755 5756 5756 5758 5758 5760 5760 5764 5766 5764 5763 5765 5766 5768 5769 5770 5768 5766 5766 5766 5765 5765 5766 5766 5765 5764 5765 5763 5761 5759 5756 5753 5750 5747 5742
5745 5745 5746 5748 5751 5751 5751 5752 5753 5754 5754 5754 5755 5756 5758 5759 5759 5761 5760 5759 5759 5762 5764 5765 5765 5764 5763 5762 5761 5761 5762 5762 5762 5762 5761 5760 5759 5756 5752 5749 5746 5741 5737 5731
5742 5743 5745 5746 5749 5751 5751 5751 5752 5753 5752 5753 5753 5754 5758 5757 5757 5757 5756 5757 5757 5757 5758 5759 5759 5759 5758 5759 5759 5759 5758 5759 5759 5759 5757 5754 5753 5749 5745 5741 5736 5731 5726 5720
5739 5741 5742 5745 5747 5749 5750 5750 5750 5748 5750 5750 5749 5751 5754 5755 5756 5755 5755 5755 5756 5755 5756 5756 5756 5756 5756 5756 5755 5755 5755 5755 5755 5752 5750 5749 5745 5741 5735 5730 5725 5720 5716 5711
5736 5738 5740 5743 5744 5747 5747 5747 5748 5747 5747 5746 5748 5748 5749 5750 5751 5751 5752 5753 5753 5753 5753 5753 5753 5753 5754 5753 5752 5751 5750 5750 5749 5747 5744 5740 5735 5731 5725 5721 5716 5712 5708 5702
5734 5735 5735 5738 5741 5744 5746 5745 5745 5744 5743 5743 5744 5745 5746 5747 5749 5748 5747 5748 5749 5749 5749 5750 5750 5749 5749 5748 5747 5746 5745 5744 5742 5739 5735 5731 5726 5721 5718 5714 5710 5703 5697 5691
5729 5731 5733 5735 5737 5739 5739 5739 5740 5740 5740 5740 5741 5743 5742 5744 5744 5744 5744 5745 5746 5746 5747 5747 5747 5746 5745 5744 5741 5739 5737 5736 5733 5729 5725 5722 5718 5715 5710 5704 5697 5691 5687 5679
5726 5727 5726 5730 5732 5733 5733 5735 5735 5735 5738 5737 5737 5740 5738 5739 5740 5740 5741 5741 5743 5742 5743 5743 5743 5742 5740 5738 5736 5733 5730 5728 5724 5721 5717 5714 5708 5704 5698 5692 5685 5681 5680 5672
5720 5721 5723 5724 5727 5729 5729 5730 5731 5732 5732 5733 5733 5736 5735 5735 5734 5734 5734 5734 5735 5736 5738 5738 5737 5736 5734 5732 5731 5728 5724 5721 5717 5714 5709 5704 5700 5694 5687 5681 5675 5670 5665 5658
5714 5716 5719 5722 5724 5724 5724 5725 5726 5727 5727 5729 5730 5731 5731 5729 5727 5726 5726 5727 5728 5730 5731 5731 5730 5729 5727 5725 5722 5719 5715 5713 5709 5705 5700 5695 5689 5683 5677 5671 5665 5659 5652 5646
5710 5711 5714 5716 5718 5718 5720 5721 5721 5722 5723 5723 5725 5723 5723 5722 5721 5720 5721 5721 5723 5724 5724 5723 5722 5721 5719 5716 5713 5710 5707 5704 5700 5695 5690 5683 5677 5672 5667 5661 5654 5647 5640 5632
5706 5706 5709 5709 5711 5712 5714 5715 5716 5716 5718 5718 5716 5716 5717 5717 5716 5715 5715 5715 5715 5715 5714 5713 5712 5710 5707 5705 5702 5700 5697 5693 5688 5683 5678 5672 5667 5661 5654 5647 5640 5634 5625 5617
5699 5701 5703 5704 5705 5706 5705 5712 5712 5712 5711 5712 5711 5712 5710 5710 5709 5709 5709 5709 5708 5707 5705 5704 5702 5699 5697 5694 5691 5688 5685 5681 5676 5672 5666 5661 5654 5646 5640 5633 5627 5620 5611 5602
5694 5697 5698 5698 5699 5696 5704 5704 5705 5704 5704 5705 5705 5703 5703 5702 5702 5702 5702 5701 5701 5699 5697 5695 5693 5691 5688 5685 5682 5678 5673 5668 5663 5658 5652 5646 5639 5633 5627 5620 5612 5604 5595 5586
5688 5691 5691 5692 5692 5693 5694 5698 5698 5697 5696 5697 5697 5696 5695 5694 5694 5695 5696 5695 5693 5691 5689 5687 5685 5683 5680 5677 5672 5668 5663 5658 5652 5646 5640 5633 5626 5620 5613 5606 5598 5589 5581 5571
5682 5685 5687 5687 5686 5687 5691 5689 5689 5689 5688 5690 5690 5689 5688 5687 5687 5688 5687 5686 5684 5683 5681 5678 5676 5673 5669 5665 5661 5656 5651 5645 5640 5633 5627 5620 5613 5605 5598 5591 5582 5573 5565 5556
5675 5678 5679 5680 5680 5681 5684 5685 5683 5681 5689 5682 5681 5680 5679 5680 5680 5680 5679 5677 5676 5674 5672 5669 5666 5663 5659 5654 5649 5643 5638 5632 5626 5620 5613 5606 5599 5592 5583 5575 5566 5558 5549 5540
5669 5671 5673 5674 5674 5675 5678 5676 5677 5678 5674 5674 5673 5672 5672 5672 5672 5671 5670 5669 5667 5665 5662 5659 5655 5651 5646 5640 5635 5631 5625 5619 5612 5605 5598 5592 5585 5577 5569 5560 5551 5542 5533 5523
5661 5665 5666 5667 5668 5668 5670 5670 5669 5668 5667 5667 5667 5667 5667 5666 5665 5664 5662 5661 5658 5655 5651 5647 5642 5637 5632 5627 5622 5616 5610 5604 5597 5591 5584 5577 5569 5561 5553 5545 5536 5526 5513 5502
5653 5656 5657 5660 5661 5662 5662 5663 5662 5661 5660 5660 5660 5661 5661 5659 5657 5655 5653 5650 5646 5643 5639 5634 5629 5624 5619 5613 5608 5602 5596 5589 5583 5576 5569 5561 5553 5544 5536 5527 5516 5506 5495 5485
5645 5647 5649 5652 5654 5656 5655 5654 5654 5654 5654 5654 5654 5653 5652 5650 5647 5645 5641 5638 5635 5630 5626 5621 5616 5610 5605 5599 5593 5588 5581 5575 5568 5560 5552 5544 5536 5528 5519 5509 5498 5488 5478 5464
5635 5640 5642 5645 5647 5646 5647 5647 5647 5648 5647 5647 5646 5644 5642 5640 5637 5634 5630 5627 5622 5618 5613 5607 5602 5596 5591 5586 5580 5574 5567 5560 5552 5544 5535 5527 5519 5510 5500 5491 5484 5472 5458 5448